| time (UTC) | temp F | wind direction | speed MPH | gust MPH | rain 1hr in | rain 24hr in | rain mn in | humidity % | barometer mb |
| 20260507223016 | 49 | 232 | 8.0 | 17.0 | 0.00 | 0.00 | 0.00 | 60 | 1009.1 |
| 20260507221516 | 50 | 234 | 7.0 | 13.0 | 0.00 | 0.00 | 0.00 | 57 | 1009.0 |
| 20260507220016 | 50 | 257 | 6.0 | 14.0 | 0.00 | 0.00 | 0.00 | 55 | 1009.1 |
| 20260507214511 | 51 | 242 | 9.0 | 15.0 | 0.00 | 0.00 | 0.00 | 56 | 1009.3 |
| 20260507213010 | 49 | 196 | 9.0 | 16.0 | 0.00 | 0.00 | 0.00 | 57 | 1009.3 |
| 20260507211512 | 49 | 266 | 8.0 | 17.0 | 0.00 | 0.00 | 0.00 | 59 | 1009.3 |
| 20260507210009 | 50 | 236 | 13.0 | 20.0 | 0.00 | 0.00 | 0.00 | 55 | 1009.4 |
| 20260507204507 | 49 | 238 | 10.0 | 20.0 | 0.00 | 0.00 | 0.00 | 59 | 1009.4 |
| 20260507203005 | 49 | 242 | 9.0 | 18.0 | 0.00 | 0.00 | 0.00 | 58 | 1009.6 |
| 20260507201507 | 50 | 224 | 12.0 | 19.0 | 0.00 | 0.00 | 0.00 | 56 | 1009.6 |
| 20260507200005 | 50 | 270 | 10.0 | 15.0 | 0.00 | 0.00 | 0.00 | 57 | 1009.8 |
| 20260507194502 | 50 | 221 | 8.0 | 19.0 | 0.00 | 0.00 | 0.00 | 57 | 1009.8 |
| 20260507193103 | 50 | 245 | 12.0 | 21.0 | 0.00 | 0.00 | 0.00 | 57 | 1010.0 |
| 20260507193001 | 50 | 247 | 11.0 | 21.0 | 0.00 | 0.00 | 0.00 | 57 | 1010.0 |
| 20260507191559 | 50 | 232 | 12.0 | 17.0 | 0.00 | 0.00 | 0.00 | 55 | 1010.0 |
| 20260507190057 | 50 | 245 | 7.0 | 18.0 | 0.00 | 0.00 | 0.00 | 58 | 1010.3 |
| 20260507184556 | 50 | 239 | 9.0 | 20.0 | 0.00 | 0.00 | 0.00 | 58 | 1010.4 |
| 20260507183103 | 50 | 283 | 11.0 | 17.0 | 0.00 | 0.00 | 0.00 | 56 | 1010.3 |
| 20260507181554 | 49 | 254 | 11.0 | 19.0 | 0.00 | 0.00 | 0.00 | 57 | 1010.5 |
| 20260507180055 | 49 | 219 | 12.0 | 18.0 | 0.00 | 0.00 | 0.00 | 54 | 1010.5 |
| 20260507174605 | 49 | 248 | 11.0 | 18.0 | 0.00 | 0.00 | 0.00 | 55 | 1010.5 |
| 20260507173059 | 49 | 276 | 12.0 | 18.0 | 0.00 | 0.00 | 0.00 | 51 | 1010.5 |
| 20260507171608 | 49 | 267 | 9.0 | 18.0 | 0.00 | 0.00 | 0.00 | 53 | 1010.7 |
| 20260507170055 | 48 | 259 | 11.0 | 19.0 | 0.00 | 0.00 | 0.00 | 55 | 1010.7 |
| 20260507164602 | 48 | 267 | 11.0 | 19.0 | 0.00 | 0.01 | 0.00 | 53 | 1010.8 |
| 20260507163050 | 49 | 280 | 6.0 | 18.0 | 0.00 | 0.01 | 0.00 | 55 | 1010.9 |
| 20260507161550 | 48 | 255 | 11.0 | 20.0 | 0.00 | 0.01 | 0.00 | 52 | 1010.9 |
| 20260507160048 | 49 | 234 | 8.0 | 18.0 | 0.00 | 0.01 | 0.00 | 53 | 1010.9 |
| 20260507154546 | 48 | 244 | 8.0 | 16.0 | 0.00 | 0.02 | 0.00 | 54 | 1011.0 |
| 20260507153048 | 48 | 219 | 9.0 | 17.0 | 0.00 | 0.02 | 0.00 | 55 | 1011.2 |
| 20260507151544 | 48 | 258 | 8.0 | 16.0 | 0.00 | 0.02 | 0.00 | 56 | 1011.3 |
| 20260507150040 | 47 | 259 | 9.0 | 17.0 | 0.00 | 0.03 | 0.00 | 58 | 1011.4 |
| 20260507144537 | 46 | 266 | 7.0 | 17.0 | 0.00 | 0.03 | 0.00 | 59 | 1011.5 |
| 20260507143039 | 45 | 252 | 12.0 | 17.0 | 0.00 | 0.03 | 0.00 | 57 | 1011.6 |
| 20260507141537 | 46 | 233 | 10.0 | 21.0 | 0.00 | 0.03 | 0.00 | 57 | 1011.6 |
| 20260507140035 | 45 | 264 | 8.0 | 14.0 | 0.00 | 0.08 | 0.00 | 58 | 1011.7 |
| 20260507134545 | 45 | 271 | 8.0 | 16.0 | 0.00 | 0.08 | 0.00 | 57 | 1011.9 |
| 20260507133031 | 44 | 275 | 5.0 | 16.0 | 0.00 | 0.08 | 0.00 | 60 | 1011.8 |
| 20260507131535 | 44 | 282 | 9.0 | 15.0 | 0.00 | 0.08 | 0.00 | 58 | 1011.8 |
| 20260507130029 | 44 | 280 | 8.0 | 18.0 | 0.00 | 0.13 | 0.00 | 60 | 1011.9 |
| 20260507124526 | 43 | 292 | 8.0 | 18.0 | 0.00 | 0.13 | 0.00 | 62 | 1011.9 |
| 20260507123025 | 43 | 290 | 10.0 | 19.0 | 0.00 | 0.13 | 0.00 | 61 | 1012.0 |
| 20260507121524 | 42 | 252 | 7.0 | 15.0 | 0.00 | 0.13 | 0.00 | 65 | 1011.9 |
| 20260507120023 | 42 | 276 | 8.0 | 16.0 | 0.00 | 0.17 | 0.00 | 67 | 1011.9 |
| 20260507114527 | 41 | 320 | 5.0 | 13.0 | 0.00 | 0.17 | 0.00 | 70 | 1011.8 |
| 20260507113020 | 41 | 303 | 6.0 | 13.0 | 0.00 | 0.17 | 0.00 | 71 | 1011.7 |
| 20260507111523 | 41 | 264 | 7.0 | 16.0 | 0.00 | 0.17 | 0.00 | 70 | 1011.7 |
| 20260507110019 | 41 | 285 | 5.0 | 12.0 | 0.00 | 0.25 | 0.00 | 72 | 1011.6 |
| 20260507104516 | 40 | 243 | 5.0 | 12.0 | 0.00 | 0.25 | 0.00 | 73 | 1011.4 |
| 20260507103016 | 39 | 293 | 5.0 | 13.0 | 0.00 | 0.25 | 0.00 | 73 | 1011.2 |
| 20260507101519 | 39 | 270 | 4.0 | 10.0 | 0.00 | 0.25 | 0.00 | 74 | 1011.1 |
| 20260507100013 | 38 | 246 | 4.0 | 9.0 | 0.00 | 0.33 | 0.00 | 75 | 1011.1 |
| 20260507094512 | 38 | 248 | 5.0 | 10.0 | 0.00 | 0.33 | 0.00 | 74 | 1011.0 |
| 20260507093011 | 38 | 295 | 5.0 | 11.0 | 0.00 | 0.33 | 0.00 | 74 | 1011.1 |
| 20260507091511 | 39 | 242 | 5.0 | 10.0 | 0.00 | 0.33 | 0.00 | 74 | 1011.0 |
| 20260507090008 | 39 | 262 | 5.0 | 12.0 | 0.00 | 0.38 | 0.00 | 73 | 1011.0 |
| 20260507084505 | 39 | 263 | 6.0 | 14.0 | 0.00 | 0.38 | 0.00 | 72 | 1011.0 |
| 20260507083006 | 39 | 250 | 6.0 | 14.0 | 0.00 | 0.38 | 0.00 | 72 | 1010.9 |
| 20260507081511 | 39 | 271 | 5.0 | 12.0 | 0.00 | 0.38 | 0.00 | 72 | 1010.7 |
| 20260507080003 | 39 | 279 | 6.0 | 15.0 | 0.00 | 0.40 | 0.00 | 73 | 1010.9 |
| 20260507074601 | 40 | 230 | 8.0 | 21.0 | 0.00 | 0.40 | 0.00 | 72 | 1011.0 |
| 20260507073101 | 40 | 285 | 9.0 | 21.0 | 0.00 | 0.40 | 0.00 | 73 | 1010.9 |
| 20260507071600 | 40 | 275 | 9.0 | 15.0 | 0.00 | 0.40 | 0.00 | 75 | 1010.5 |
| 20260507070104 | 40 | 255 | 7.0 | 12.0 | 0.00 | 0.40 | 0.00 | 75 | 1010.5 |
| 20260507064553 | 41 | 255 | 6.0 | 15.0 | 0.00 | 0.52 | 0.00 | 74 | 1010.6 |
| 20260507063053 | 41 | 254 | 8.0 | 12.0 | 0.00 | 0.52 | 0.00 | 72 | 1010.5 |
| 20260507061552 | 41 | 269 | 7.0 | 16.0 | 0.00 | 0.52 | 0.00 | 73 | 1010.7 |
| 20260507054547 | 42 | 274 | 7.0 | 14.0 | 0.00 | 0.62 | 0.00 | 71 | 1010.5 |
| 20260507053049 | 43 | 265 | 8.0 | 15.0 | 0.00 | 0.62 | 0.00 | 72 | 1010.6 |
| 20260507051542 | 43 | 295 | 5.0 | 17.0 | 0.00 | 0.62 | 0.00 | 69 | 1010.6 |
| 20260507050042 | 43 | 284 | 9.0 | 22.0 | 0.00 | 0.65 | 0.00 | 70 | 1010.6 |
| 20260507044534 | 44 | 214 | 6.0 | 12.0 | 0.00 | 0.65 | 0.00 | 88 | 1010.6 |
| 20260507043032 | 44 | 245 | 6.0 | 12.0 | 0.00 | 0.65 | 0.00 | 89 | 1010.5 |
| 20260507041531 | 44 | 250 | 7.0 | 11.0 | 0.00 | 0.65 | 0.00 | 89 | 1010.3 |
| 20260507040026 | 44 | 238 | 6.0 | 12.0 | 0.00 | 0.69 | 0.65 | 90 | 1010.4 |
| 20260507034544 | 44 | 237 | 5.0 | 11.0 | 0.00 | 0.69 | 0.65 | 90 | 1010.3 |
| 20260507033024 | 44 | 236 | 7.0 | 12.0 | 0.00 | 0.69 | 0.65 | 89 | 1010.3 |
| 20260507031524 | 44 | 225 | 4.0 | 10.0 | 0.00 | 0.69 | 0.65 | 89 | 1010.4 |
| 20260507030024 | 43 | 271 | 4.0 | 8.0 | 0.00 | 0.75 | 0.65 | 89 | 1010.4 |
| 20260507024538 | 43 | 217 | 5.0 | 11.0 | 0.00 | 0.75 | 0.65 | 89 | 1010.5 |
| 20260507023021 | 43 | 238 | 8.0 | 14.0 | 0.00 | 0.75 | 0.65 | 89 | 1010.5 |
| 20260507021521 | 44 | 236 | 6.0 | 13.0 | 0.00 | 0.75 | 0.65 | 89 | 1010.7 |
| 20260507020021 | 44 | 231 | 6.0 | 13.0 | 0.00 | 0.83 | 0.65 | 89 | 1010.8 |
| 20260507014533 | 44 | 240 | 5.0 | 12.0 | 0.00 | 0.83 | 0.65 | 89 | 1010.7 |
| 20260507013018 | 44 | 246 | 5.0 | 10.0 | 0.00 | 0.83 | 0.65 | 89 | 1010.9 |
| 20260507011534 | 44 | 202 | 5.0 | 12.0 | 0.00 | 0.83 | 0.65 | 88 | 1010.9 |
| 20260507010019 | 44 | 236 | 5.0 | 10.0 | 0.00 | 0.93 | 0.65 | 89 | 1010.8 |
| 20260507004516 | 44 | 256 | 4.0 | 9.0 | 0.00 | 0.93 | 0.65 | 88 | 1010.8 |
| 20260507003017 | 44 | 238 | 3.0 | 6.0 | 0.00 | 0.93 | 0.65 | 88 | 1010.6 |
| 20260507001516 | 45 | 221 | 3.0 | 6.0 | 0.00 | 0.93 | 0.65 | 87 | 1010.4 |
| 20260507000011 | 45 | 260 | 2.0 | 5.0 | 0.00 | 1.00 | 0.65 | 86 | 1009.9 |
| 20260506234510 | 46 | 251 | 4.0 | 8.0 | 0.00 | 1.00 | 0.65 | 86 | 1010.0 |
| 20260506233110 | 46 | 240 | 2.0 | 5.0 | 0.00 | 1.00 | 0.65 | 84 | 1009.9 |
| 20260506231508 | 46 | 255 | 2.0 | 4.0 | 0.00 | 1.00 | 0.65 | 81 | 1009.9 |
| 20260506230013 | 46 | 229 | 0.0 | 3.0 | 0.00 | 1.00 | 0.65 | 81 | 1009.8 |
| 20260506224509 | 46 | 240 | 2.0 | 4.0 | 0.00 | 1.00 | 0.65 | 77 | 1009.9 |